Regional Weather Roundup
Issued by NWS

Home | Current Version | Previous Version | Text Only | Print | Product List | Glossary On
Versions: 1 2 3 4 5 6 7 8 9 10 11 12 13 14 15 16 17 18 19 20 21 22 23 24 25 26 27 28 29 30 31 32 33 34 35 36 37 38 39 40 41 42 43 44 45 46 47 48 49 50
896
ASUS44 KLIX 201005
RWRLA
LOUISIANA WEATHER ROUNDUP
NATIONAL WEATHER SERVICE NEW ORLEANS LA
500 AM CDT WED AUG 20 2014

NOTE: "FAIR" INDICATES FEW OR NO CLOUDS BELOW 12,000 FEET WITH NO
      SIGNIFICANT WEATHER AND/OR OBSTRUCTIONS TO VISIBILITY.
      SKY/WX - SKY CONDITION AND SIGNIFICANT WEATHER.
      TMP - AIR TEMPERATURE.    DP   - DEWPOINT TEMPERATURE.
      RH  - RELATIVE HUMIDITY.  PRES - PRESSURE.
      HX  - HEAT INDEX.         WCI  - WIND CHILL INDEX.

*  THESE STATIONS ARE NOT NWS OR FAA STATIONS AND ARE NOT UNDER
   NWS QUALITY CONTROL.

LAZ040-048-061>063-065-066-069-201100-
SOUTHEAST LOUISIANA

CITY           SKY/WX    TMP DP  RH WIND       PRES   REMARKS
N.O. AUDUBON   NOT AVBL
N.O. INTL ARPT MOCLDY    79  75  87 CALM      29.99R
N.O. LAKEFRONT PTCLDY    82  76  81 CALM      30.00R
N.O. DOWNTOWN* FAIR      82  73  74 CALM      30.00R
SLIDELL        PTCLDY    75  72  90 CALM      29.99R
BATON ROUGE    CLEAR     73  70  90 NE3       29.99R
BOOTHVILLE     CLEAR     84  76  76 SW7       30.00R
BELLE CHASSE   PTCLDY    75  71  87 CALM      29.99R
BOGALUSA*      FAIR      75  72  88 CALM      30.01R
GALLIANO*      NOT AVBL
NEW ROADS*     FAIR      70  70  98 CALM      30.00R
GONZALES*      FAIR      74  74 100 CALM      29.98S
HAMMOND*       PTCLDY    73  70  88 CALM      30.01R
HOUMA*         CLEAR     74  71  91 CALM      29.99R FOG
PORT FOURCHON* SUNNY     84  75  74 S6        30.01R

$$

LAZ041-044-053-054-201100-
SOUTHWEST LOUISIANA

CITY           SKY/WX    TMP DP  RH WIND       PRES   REMARKS
LAKE CHARLES   CLEAR     74  72  93 CALM      29.96S
LAFAYETTE      CLEAR     75  73  93 CALM      29.98R
PATTERSON      PTCLDY   N/A N/A N/A MISG        N/A
SALT POINT       N/A     85  77  77 CALM      29.97R HX  95
NEW IBERIA     CLEAR     74  72  93 CALM      29.98R
CHENAULT AIRPK NOT AVBL

$$

LAZ027-028-201100-
CENTRAL LOUISIANA

CITY           SKY/WX    TMP DP  RH WIND       PRES   REMARKS
FORT POLK      PTCLDY    72  70  93 CALM      29.98R
ALEXANDRIA INT MOCLDY    72  70  93 SE3       29.96R
ALEXANDRIA     MOCLDY    74  71  91 CALM      29.99R

$$

LAZ001-002-201100-
NORTHWEST LOUISIANA

CITY           SKY/WX    TMP DP  RH WIND       PRES   REMARKS
SHREVEPORT     PTCLDY    73  68  84 CALM      29.96R
BARKSDALE AFB  PTCLDY    71  69  96 SE6       29.96R
DTN SHREVEPORT PTCLDY    73  68  84 S3        29.96R

$$

LAZ014-016-201100-
NORTHEAST LOUISIANA

CITY           SKY/WX    TMP DP  RH WIND       PRES   REMARKS
MONROE         PTCLDY    73  70  90 CALM      29.97S
TALLULAH       PTCLDY    73  71  93 S3        29.98R

$$




USA.gov is the U.S. government's official web portal to all federal, state and local government web resources and services.